Weather History for KWVL - February, 2014

Change the Weather History Date:

Saturday, February 8, 2014

  Actual Average Record
Temperature  
Mean Temperature 16 °F -  
Max Temperature 24 °F 32 °F 46 °F (1991)
Min Temperature 8 °F 6 °F -16 °F (1962)
Degree Days  
Heating Degree Days 49    
Moisture  
Dew Point 3 °F    
Average Humidity 57    
Maximum Humidity 85    
Minimum Humidity 40    
Precipitation  
Precipitation 0.00 in - - ()
Sea Level Pressure  
Sea Level Pressure 30.08 in    
Wind  
Wind Speed 5 mph (WNW)    
Max Wind Speed 13 mph    
Max Gust Speed 23 mph    
Averages and records for this station are not official NWS values.
T = Trace of Precipitation, MM = Missing Value Source: NWS Daily Summary

Daily Weather History Graph

Daily Weather History Graph

Search for Another Location

Airport or City:

Trip Planner

Search our weather history database for the weather conditions in past years. The results will help you decide how hot, cold, wet, or windy it might be!

Date:

Astronomy

Feb. 08, 2014 Rise Set
Actual Time 6:48 AM EST 4:57 PM EST
Civil Twilight 6:18 AM EST 5:28 PM EST
Nautical Twilight 5:43 AM EST 6:02 PM EST
Astronomical Twilight 5:10 AM EST 6:36 PM EST
Moon 11:45 AM EST (2/8) 2:01 AM EST (2/8)
Length of Visible Light 11h 09m
Length of Day
10h 08m
Waxing Gibbous, 68% of the Moon is Illuminated
Feb 8
Waxing Gibbous
Feb 14
Full
Feb 22
Last Quarter
Mar 1
New
Mar 8
First Quarter

Hourly Weather History & Observations

Time (EST) Temp. Windchill Dew Point Humidity Pressure Visibility Wind Dir Wind Speed Gust Speed Precip Events Conditions
12:15 AM 10.4 °F - 6.8 °F 85% 30.03 in - Calm Calm - N/A   Unknown
12:35 AM 10.4 °F 4.0 °F 6.8 °F 85% 30.02 in - SSW 3.5 mph - N/A   Unknown
12:55 AM 12.2 °F 1.7 °F 8.6 °F 85% 30.02 in - SW 6.9 mph - N/A   Unknown
1:15 AM 10.4 °F - 3.2 °F 73% 30.02 in - Calm Calm - N/A   Mostly Cloudy
1:35 AM 10.4 °F - 6.8 °F 85% 30.03 in - Calm Calm - N/A   Unknown
1:55 AM 10.4 °F 4.0 °F 6.8 °F 85% 30.03 in - SSW 3.5 mph - N/A   Unknown
2:15 AM 8.6 °F - 3.2 °F 79% 30.04 in - Calm Calm - N/A   Clear
2:35 AM 8.6 °F -1.3 °F 3.2 °F 79% 30.03 in - WSW 5.8 mph - N/A   Clear
2:55 AM 10.4 °F - 3.2 °F 73% 30.05 in - Calm Calm - N/A   Clear
3:15 AM 8.6 °F -1.3 °F 5.0 °F 85% 30.05 in - WSW 5.8 mph - N/A   Unknown
3:35 AM 10.4 °F 4.0 °F 3.2 °F 73% 30.05 in - SW 3.5 mph - N/A   Clear
3:55 AM 10.4 °F 2.2 °F 5.0 °F 79% 30.05 in - West 4.6 mph - N/A   Clear
4:15 AM 12.2 °F 6.1 °F 3.2 °F 67% 30.05 in - WNW 3.5 mph - N/A   Clear
4:35 AM 8.6 °F - 1.4 °F 73% 30.06 in - Calm Calm - N/A   Clear
4:55 AM 8.6 °F - -0.4 °F 67% 30.06 in - Calm Calm - N/A   Clear
5:15 AM 10.4 °F 0.8 °F 3.2 °F 73% 30.07 in - WNW 5.8 mph - N/A   Clear
5:35 AM 10.4 °F 4.0 °F 1.4 °F 67% 30.07 in - NW 3.5 mph - N/A   Clear
5:55 AM 8.6 °F - 1.4 °F 73% 30.08 in - Calm Calm - N/A   Clear
6:15 AM 10.4 °F -0.4 °F 6.8 °F 85% 30.09 in - WSW 6.9 mph - N/A   Unknown
6:35 AM 12.2 °F 0.7 °F 1.4 °F 62% 30.10 in - West 8.1 mph - N/A   Clear
6:55 AM 12.2 °F -1.0 °F 1.4 °F 62% 30.10 in - NW 10.4 mph - N/A   Clear
7:15 AM 14.0 °F 2.0 °F 1.4 °F 57% 30.11 in - WNW 9.2 mph 16.1 mph N/A   Clear
7:35 AM 15.8 °F 6.1 °F 1.4 °F 53% 30.11 in - West 6.9 mph 16.1 mph N/A   Clear
7:55 AM 15.8 °F 3.4 °F 1.4 °F 53% 30.11 in - WNW 10.4 mph 17.3 mph N/A   Clear
8:15 AM 15.8 °F 2.1 °F 1.4 °F 53% 30.11 in - West 12.7 mph 23.0 mph N/A   Clear
8:35 AM 17.6 °F 5.7 °F 1.4 °F 49% 30.12 in - West 10.4 mph - N/A   Clear
8:55 AM 17.6 °F 5.7 °F 1.4 °F 49% 30.12 in - WSW 10.4 mph - N/A   Clear
9:15 AM 17.6 °F 9.3 °F 1.4 °F 49% 30.12 in - West 5.8 mph - N/A   Clear
9:35 AM 19.4 °F 8.6 °F 1.4 °F 46% 30.12 in - West 9.2 mph - N/A   Clear
9:55 AM 19.4 °F 7.2 °F 3.2 °F 49% 30.12 in - West 11.5 mph 18.4 mph N/A   Clear
10:15 AM 19.4 °F 9.5 °F 3.2 °F 49% 30.12 in - WSW 8.1 mph - N/A   Clear
10:35 AM 19.4 °F 8.6 °F 3.2 °F 49% 30.11 in - WSW 9.2 mph 19.6 mph N/A   Clear
10:55 AM 21.2 °F 12.6 °F 3.2 °F 46% 30.11 in - West 6.9 mph - N/A   Clear
11:15 AM 21.2 °F 9.5 °F 3.2 °F 46% 30.10 in - WNW 11.5 mph 16.1 mph N/A   Clear
11:35 AM 21.2 °F 12.6 °F 3.2 °F 46% 30.10 in - West 6.9 mph - N/A   Clear
11:55 AM 23.0 °F 15.8 °F 3.2 °F 43% 30.09 in - WNW 5.8 mph - N/A   Partly Cloudy
12:15 PM 24.8 °F 16.1 °F 3.2 °F 40% 30.07 in - West 8.1 mph - N/A   Clear
12:35 PM 24.8 °F 17.9 °F 3.2 °F 40% 30.06 in - WNW 5.8 mph 18.4 mph N/A   Clear
12:55 PM 24.8 °F 14.6 °F 3.2 °F 40% 30.06 in - West 10.4 mph - N/A   Clear
1:15 PM 24.8 °F 14.0 °F 5.0 °F 43% 30.05 in - West 11.5 mph - N/A   Clear
1:35 PM 24.8 °F 16.9 °F 3.2 °F 40% 30.05 in - West 6.9 mph 16.1 mph N/A   Clear
1:55 PM 24.8 °F 14.6 °F 5.0 °F 43% 30.05 in - West 10.4 mph - N/A   Clear
2:15 PM 24.8 °F 17.9 °F 3.2 °F 40% 30.04 in - WSW 5.8 mph - N/A   Clear
2:35 PM 24.8 °F 16.9 °F 3.2 °F 40% 30.03 in - WNW 6.9 mph - N/A   Clear
2:55 PM 24.8 °F 15.3 °F 3.2 °F 40% 30.04 in - WSW 9.2 mph 17.3 mph N/A   Clear
3:15 PM 24.8 °F 14.6 °F 3.2 °F 40% 30.06 in - WSW 10.4 mph - N/A   Clear
3:35 PM 24.8 °F 16.9 °F 3.2 °F 40% 30.06 in - WSW 6.9 mph - N/A   Clear
3:55 PM 23.0 °F 12.4 °F 3.2 °F 43% 30.07 in - SW 10.4 mph - N/A   Clear
4:15 PM 23.0 °F 13.9 °F 3.2 °F 43% 30.07 in - WSW 8.1 mph - N/A   Clear
4:35 PM 23.0 °F 13.9 °F 3.2 °F 43% 30.08 in - WSW 8.1 mph - N/A   Clear
4:55 PM 21.2 °F 13.6 °F 3.2 °F 46% 30.09 in - WSW 5.8 mph - N/A   Clear
5:15 PM 21.2 °F 14.9 °F 3.2 °F 46% 30.09 in - West 4.6 mph - N/A   Clear
5:35 PM 21.2 °F 16.4 °F 3.2 °F 46% 30.09 in - WNW 3.5 mph - N/A   Clear
5:55 PM 19.4 °F 10.4 °F 3.2 °F 49% 30.09 in - NW 6.9 mph - N/A   Clear
6:15 PM 19.4 °F 12.8 °F 3.2 °F 49% 30.10 in - NNW 4.6 mph - N/A   Clear
6:35 PM 19.4 °F 10.4 °F 3.2 °F 49% 30.09 in - NNW 6.9 mph - N/A   Clear
6:55 PM 19.4 °F 10.4 °F 3.2 °F 49% 30.10 in - NNW 6.9 mph - N/A   Clear
7:15 PM 17.6 °F 8.2 °F 3.2 °F 53% 30.10 in - NNW 6.9 mph - N/A   Clear
7:35 PM 17.6 °F 9.3 °F 3.2 °F 53% 30.10 in - NNW 5.8 mph - N/A   Clear
7:55 PM 17.6 °F 6.4 °F 3.2 °F 53% 30.09 in - NNW 9.2 mph - N/A   Clear
8:15 PM 17.6 °F 7.3 °F 3.2 °F 53% 30.09 in - NNW 8.1 mph - N/A   Clear
8:35 PM 17.6 °F 8.2 °F 3.2 °F 53% 30.09 in - NNW 6.9 mph - N/A   Clear
8:55 PM 15.8 °F 8.6 °F 3.2 °F 58% 30.10 in - NNW 4.6 mph - N/A   Clear
9:15 PM 17.6 °F 10.7 °F 3.2 °F 53% 30.10 in - NNW 4.6 mph - N/A   Scattered Clouds
9:35 PM 15.8 °F 10.2 °F 3.2 °F 58% 30.09 in - North 3.5 mph - N/A   Mostly Cloudy
9:55 PM 14.0 °F - 3.2 °F 62% 30.09 in - Calm Calm - N/A   Mostly Cloudy
10:15 PM 12.2 °F - 3.2 °F 67% 30.09 in - Calm Calm - N/A   Partly Cloudy
10:35 PM 12.2 °F - 3.2 °F 67% 30.08 in - Calm Calm - N/A   Clear
10:55 PM 15.8 °F - 3.2 °F 58% 30.09 in - Calm Calm - N/A   Clear
11:15 PM 12.2 °F 6.1 °F 3.2 °F 67% 30.08 in - NNW 3.5 mph - N/A   Clear
11:35 PM 14.0 °F 6.5 °F 6.8 °F 73% 30.08 in - North 4.6 mph - N/A   Mostly Cloudy
11:55 PM 14.0 °F 6.5 °F 5.0 °F 67% 30.08 in - North 4.6 mph - N/A   Overcast